Terminal Aerodrome Forecast
Issued by NWS Mt. Holly, NJ

Current Version | Previous Version | Text Only | Print | Product List | Glossary On
Versions: 1 2 3 4 5 6 7 8 9 10 11 12 13 14 15 16 17 18 19 20 21 22 23 24 25 26 27 28 29 30 31 32 33 34 35 36 37 38 39 40 41 42 43 44 45 46 47 48 49 50
000
FTAK31 PANC 301424 AAA
TAFABE
TAF AMD
PABE 301424Z 3014/3112 30015G22KT P6SM VCSH SCT025 BKN035
      TEMPO 3014/3016 29010KT
     FM301800 30012G21KT P6SM OVC015
     FM302100 30021KT P6SM BKN007=

USA.gov is the U.S. government's official web portal to all federal, state and local government web resources and services.